Location: Morisset
(33.1080°S, 151.4871°E)
Time: 12:33:46
(UTC+00:00)

Cosmos 1656 Rocket - Pass Details

Date: 29 October 2020
Orbit: 794 x 848 km, 71.1° (Epoch: 23 November)

Event Time Altitude Azimuth Distance (km) Brightness Sun altitude
Exits shadow 17:20:05 24° 346° (NNW) 1,629 4.8 -19.3°
Maximum altitude 17:23:30 83° 71° (ENE) 832 3.6 -18.6°
Drops below altitude 10° 17:29:02 10° 158° (SSE) 2,413 6.8 -17.7°
Sets 17:31:27 0° 158° (SSE) 3,344 7.7 -17.2°
